GFSSW_925_temp_021.txt.gz
Temp
7 8 8 8 8 8 8 8 8 9 10 11 11 11 11 11 13 13 14 21 24 24 24 24 24 24 25 26 26 27 22 22 25 27 30 33 33 34 36 35 35 34 34 34 35
7 7 8 8 8 8 8 8 8 8 8 9 11 12 13 12 12 12 22 22 23 24 22 22 23 26 25 25 25 25 22 24 27 28 29 31 32 33 34 33 33 34 33 34 35
7 7 7 7 7 8 8 8 8 8 8 8 9 11 12 11 12 19 23 23 21 23 22 24 24 25 25 26 26 26 25 27 28 30 30 31 32 34 33 32 33 32 33 33 33
7 7 7 7 7 7 7 8 8 8 8 8 9 9 10 10 17 22 21 23 23 22 22 23 23 22 23 24 26 25 27 28 28 29 30 30 32 32 32 31 32 33 33 33 32
8 7 7 8 9 9 9 9 9 9 9 8 8 8 8 11 13 19 20 21 22 21 22 22 21 22 21 24 26 26 27 28 29 29 30 31 31 31 32 33 33 33 33 31 30
8 7 8 8 9 9 10 10 10 10 10 8 8 8 8 8 15 18 20 20 22 22 22 22 21 22 22 23 24 27 27 28 29 29 30 30 31 31 32 32 32 33 32 31 30
8 8 9 10 10 10 10 11 11 11 10 8 8 8 9 10 16 18 18 18 19 21 23 24 24 23 23 23 25 26 26 28 28 29 29 31 30 31 32 32 32 32 32 31 31
7 7 8 9 10 10 11 11 13 13 10 11 8 9 9 14 15 15 18 18 20 21 21 22 23 22 23 23 25 24 25 24 27 29 30 29 28 31 31 32 30 32 33 32 30
7 7 8 8 7 8 10 11 13 14 12 11 9 10 11 17 16 18 17 19 20 21 22 23 23 21 22 21 21 23 22 23 25 28 29 28 28 30 31 31 31 31 32 32 31
7 8 8 9 8 10 10 13 16 14 12 11 12 12 14 17 21 21 20 20 21 21 21 21 20 20 20 19 20 22 23 24 25 27 29 28 28 30 31 31 31 31 31 31 29
8 8 7 7 8 10 9 11 15 13 14 15 16 15 16 19 20 21 21 22 21 20 17 19 18 18 20 21 22 24 24 25 26 28 28 28 28 29 30 29 29 29 29 29 30
8 9 10 11 11 12 12 10 16 15 13 16 16 17 18 18 18 19 20 19 19 17 19 18 18 20 22 22 22 23 23 24 26 28 27 28 28 29 30 30 30 30 27 27 27
8 9 10 11 11 13 13 15 16 15 12 14 17 17 17 18 18 18 20 20 19 18 18 17 19 22 22 22 22 22 23 23 24 26 27 27 26 27 28 29 29 29 28 27 26
8 9 10 10 12 13 15 15 15 15 10 13 16 18 19 18 17 20 22 20 19 18 18 18 21 21 21 22 23 21 25 25 25 25 23 26 24 26 28 29 30 30 29 30 29
8 9 10 10 10 11 14 14 14 14 9 14 15 17 19 19 19 19 22 21 19 19 19 18 19 20 21 22 24 23 25 25 25 24 24 25 23 27 26 27 27 28 27 26 26
8 9 9 11 10 13 14 14 13 10 10 13 17 18 18 19 19 20 21 21 21 20 19 19 21 20 21 23 24 24 24 24 24 23 22 25 25 26 26 27 28 28 28 29 28
8 10 9 10 12 14 14 13 10 9 15 16 17 17 17 15 17 19 19 19 17 17 17 19 19 21 22 20 22 22 21 19 20 21 21 25 24 26 26 27 29 28 28 28 25
7 12 13 11 13 13 13 10 10 13 14 15 17 16 15 15 13 14 16 16 19 19 17 17 16 19 21 20 20 20 21 20 18 20 22 25 24 26 28 29 28 29 28 25 23
8 11 13 14 14 14 10 9 10 11 11 14 16 15 15 16 12 13 14 14 17 15 15 14 16 19 19 20 21 21 20 23 21 23 23 24 26 27 29 29 28 29 27 24 23
6 9 13 14 14 14 10 11 13 12 11 13 12 15 13 15 14 13 12 14 16 16 17 16 13 17 18 19 20 21 23 21 22 20 20 24 25 25 27 28 29 27 26 24 23
8 11 15 15 14 10 8 11 14 15 14 13 9 12 13 14 13 13 14 16 15 14 14 15 14 15 17 17 17 19 20 21 22 21 21 21 24 27 28 29 27 26 26 25 24
10 11 15 15 11 10 9 13 14 15 15 15 15 14 13 14 13 14 12 12 14 15 14 12 11 12 15 17 19 18 17 21 20 21 23 22 24 28 28 27 27 26 26 25 24
8 12 16 15 9 9 12 14 14 14 12 14 14 14 13 12 11 13 12 14 13 14 13 12 11 11 14 17 19 18 20 22 21 21 22 23 24 29 28 29 27 27 26 25 25
9 11 13 12 12 11 11 12 13 15 15 15 14 14 13 11 12 12 11 15 14 12 13 11 11 11 12 15 14 13 15 16 17 21 22 24 26 26 27 27 27 27 26 25 25
9 11 11 9 9 11 12 11 11 12 14 13 13 13 13 11 12 13 14 14 15 12 12 10 10 12 13 15 15 14 14 15 15 19 22 25 26 28 26 26 27 26 26 26 25
10 9 10 9 11 12 12 11 11 10 11 11 11 12 10 9 11 11 13 13 13 13 12 10 11 12 12 15 15 15 15 15 16 16 21 25 27 27 27 26 27 27 27 26 26
9 9 8 9 10 10 10 12 12 12 11 13 13 11 10 11 12 11 13 13 13 13 13 13 11 11 12 15 14 14 16 16 18 18 20 25 27 26 25 25 23 25 27 27 26

GFSSW_925_temp_024.txt.gz
Temp
7 8 7 8 8 8 8 8 8 8 8 9 10 9 8 9 12 12 12 20 23 24 23 23 22 22 23 23 24 24 21 20 24 26 27 29 30 32 34 33 33 33 32 33 35
7 7 8 7 7 7 7 8 8 8 9 10 11 11 10 10 11 11 21 22 22 23 21 21 22 23 21 22 23 22 20 22 25 27 27 28 29 30 31 31 32 33 33 35 35
7 7 7 7 7 7 7 7 8 8 9 10 10 10 9 10 10 15 21 21 22 21 21 22 22 23 21 22 23 23 23 24 26 27 27 27 29 30 29 29 30 32 32 32 33
7 7 7 7 8 9 9 9 8 8 8 9 10 9 8 10 15 20 20 18 20 19 19 20 21 21 20 21 24 23 25 25 26 27 27 27 29 29 29 29 30 30 30 32 31
7 7 7 8 9 9 10 10 10 10 8 7 7 8 8 8 10 21 19 18 19 19 18 20 20 20 19 21 23 23 24 26 26 26 27 28 28 28 28 30 31 30 30 30 28
7 8 9 9 9 10 10 10 10 10 9 7 7 8 8 7 13 17 17 16 18 18 19 20 20 20 20 20 21 23 23 24 26 26 27 27 28 28 29 30 31 31 29 29 28
7 8 9 9 10 11 11 11 12 12 8 7 8 9 9 9 14 16 15 15 16 16 17 21 22 21 20 20 21 23 21 23 24 25 26 28 27 27 29 30 30 30 30 29 28
6 7 7 7 7 7 10 13 14 14 10 8 8 9 9 14 14 13 16 14 17 18 18 20 21 20 20 21 22 22 22 22 24 25 26 26 25 28 29 29 29 30 31 31 29
7 8 9 8 7 8 11 14 15 14 12 11 9 8 9 14 14 18 16 15 17 19 20 21 21 19 20 19 19 19 20 21 23 25 26 26 26 28 29 29 27 27 28 29 30
9 9 8 6 8 10 13 14 15 15 14 11 11 10 12 15 18 17 19 17 17 19 19 20 18 18 16 16 18 18 20 22 22 24 25 26 26 27 28 28 29 29 29 29 29
9 9 9 10 11 11 12 13 13 12 14 13 14 14 15 16 16 17 18 19 18 18 16 17 16 17 18 19 19 21 21 21 23 24 24 25 25 26 27 27 25 26 27 28 28
8 9 9 11 12 13 12 9 13 13 11 14 14 15 15 16 15 16 17 16 17 16 17 16 16 18 19 20 19 19 19 20 21 24 24 24 25 26 27 28 28 28 27 27 27
8 8 9 11 12 13 11 13 14 14 11 13 15 16 17 16 15 15 17 17 16 16 16 15 17 19 19 19 19 19 19 20 20 22 24 23 23 24 25 25 26 25 26 25 24
7 8 8 9 12 12 13 14 14 14 9 13 15 17 18 17 16 17 18 17 17 16 16 16 18 18 18 18 19 18 21 21 21 21 20 24 22 24 25 26 26 26 25 25 27
7 8 9 9 8 9 13 14 13 13 9 16 16 18 19 17 18 17 20 18 16 17 16 16 17 17 18 19 20 19 21 21 22 20 20 22 20 24 24 25 26 26 25 24 24
9 9 9 10 8 13 13 13 13 8 8 14 16 17 16 17 17 17 17 18 17 18 17 17 19 19 18 19 20 21 21 21 21 19 18 21 21 22 24 25 25 25 26 26 25
9 12 11 10 10 13 13 11 8 8 14 13 12 14 15 15 16 15 15 14 13 12 13 16 17 19 20 18 19 19 18 16 16 17 19 22 21 23 23 24 26 26 26 27 24
10 12 12 13 13 13 12 8 7 11 10 13 13 13 15 13 14 14 14 13 16 16 14 15 15 18 19 18 17 17 16 15 16 16 19 23 20 21 25 27 28 28 27 23 20
10 11 12 14 14 12 7 7 8 9 13 11 12 13 13 14 13 14 13 13 14 13 13 13 15 17 18 18 18 17 17 19 18 20 18 20 22 23 25 26 27 27 23 20 19
7 8 11 14 14 13 7 10 11 13 13 13 9 10 11 11 12 12 13 14 14 14 13 14 13 16 17 18 18 17 19 17 16 17 17 19 21 22 25 25 26 25 22 19 19
9 8 14 14 14 7 5 9 12 14 14 13 11 11 12 12 12 13 12 13 13 14 14 13 12 14 15 16 16 16 17 17 17 17 18 18 19 22 23 25 26 23 22 20 20
6 8 14 14 8 6 7 11 12 13 14 13 13 12 12 12 11 13 12 12 14 13 12 12 10 10 13 16 17 16 15 15 14 16 18 19 21 25 24 25 25 23 22 21 20
5 6 14 15 6 5 9 11 12 13 13 13 12 13 12 11 11 12 13 14 14 12 12 11 9 9 11 14 15 15 15 15 14 16 18 20 20 26 24 26 24 23 22 21 20
5 7 7 6 7 9 8 8 10 11 12 13 12 12 11 10 11 11 12 14 15 12 13 11 9 10 8 13 13 13 14 15 14 13 18 20 22 24 25 26 24 23 22 22 21
5 7 8 6 7 7 8 10 10 10 11 10 11 11 9 9 10 10 11 12 12 11 10 10 9 11 11 12 13 14 14 15 14 14 14 19 20 23 24 24 23 23 23 22 21
5 6 7 7 7 7 9 10 9 9 10 9 10 11 11 9 11 10 10 10 10 9 9 10 9 11 11 13 13 14 15 15 16 16 15 16 17 21 22 23 23 24 23 22 22
7 7 6 9 9 9 8 9 9 10 10 11 10 10 10 11 11 11 11 11 10 10 9 9 9 11 11 12 15 13 14 15 16 17 17 16 19 22 21 20 19 24 24 23 23

GFSSW_925_temp_030.txt.gz
Temp
7 7 7 7 7 7 7 8 8 8 8 8 8 8 8 11 13 13 11 17 19 19 19 19 20 20 21 20 21 20 19 19 22 23 25 27 26 29 29 30 30 31 30 31 31
7 7 7 7 7 7 7 7 8 9 8 8 8 8 8 9 9 8 16 15 15 16 16 17 19 20 19 19 20 20 17 20 22 24 25 26 26 26 28 26 28 29 30 32 32
7 7 7 7 7 7 7 7 8 8 8 8 8 7 8 9 8 13 15 15 16 17 16 16 18 20 18 18 19 19 21 23 23 25 25 25 25 26 26 26 27 27 28 28 28
7 7 7 7 7 7 7 7 7 7 7 7 7 7 8 10 15 17 16 16 16 17 17 16 17 18 17 19 19 19 21 23 23 24 25 25 25 25 25 25 26 26 26 26 26
6 7 7 7 7 7 7 7 7 8 7 8 7 7 8 7 9 16 16 15 15 16 15 15 16 18 17 18 20 20 21 21 23 24 24 25 24 24 25 26 26 27 27 25 24
6 6 6 7 9 11 12 12 12 10 8 8 7 8 8 7 15 16 14 14 13 13 15 15 16 17 18 18 20 20 21 21 22 22 23 24 24 24 25 25 25 26 25 25 24
6 6 9 9 9 11 12 13 14 13 12 9 8 8 9 8 15 14 13 14 15 13 13 15 16 15 18 19 19 19 20 20 20 20 22 23 23 23 25 26 26 26 26 26 26
6 6 8 10 10 11 12 13 14 13 13 12 8 8 7 14 14 14 14 15 15 15 11 13 16 16 16 18 19 19 19 19 22 20 22 23 23 26 25 26 26 26 26 26 25
6 7 9 10 10 11 12 13 14 13 12 11 9 8 8 15 13 16 15 15 15 16 14 14 15 15 17 16 15 16 19 17 20 21 22 23 23 24 26 25 24 24 24 24 24
6 7 10 11 11 11 13 14 14 13 12 10 9 9 12 14 16 16 16 15 14 14 15 14 14 14 14 15 16 16 15 19 19 21 22 21 22 24 24 24 25 23 23 23 22
6 6 9 11 11 12 13 13 9 9 11 11 12 12 13 14 15 16 16 15 15 15 13 14 13 14 16 17 18 17 17 18 19 20 21 21 22 22 22 22 23 24 24 25 25
5 6 8 11 11 12 12 10 11 10 8 12 12 12 13 14 13 16 16 14 15 13 13 13 12 15 17 16 16 16 16 16 18 19 19 19 19 19 20 21 22 23 23 22 22
7 6 6 12 11 11 11 12 11 11 9 10 12 14 14 15 15 14 15 15 14 13 13 12 14 16 17 17 16 16 16 16 17 18 20 18 19 20 20 20 22 22 22 23 22
8 6 6 12 11 11 11 12 12 11 7 11 14 15 14 14 15 17 16 15 14 14 14 12 14 15 15 16 16 14 17 18 18 17 17 19 17 19 21 21 21 21 22 22 20
7 6 7 8 10 9 13 12 11 10 9 13 14 15 14 13 14 16 17 15 14 14 14 14 15 15 15 15 17 16 18 17 17 16 16 17 15 20 21 20 20 22 23 23 22
9 6 7 9 9 13 12 12 11 8 8 11 13 12 12 13 14 15 15 16 15 13 12 14 16 15 15 16 16 17 16 16 16 15 14 16 16 19 20 21 21 21 21 21 21
10 10 9 10 11 12 11 9 8 7 11 11 11 12 12 11 12 14 13 13 12 10 11 12 13 16 16 15 16 16 13 11 12 12 15 17 16 20 19 20 21 20 20 20 19
12 12 12 13 13 12 11 8 6 10 10 12 12 12 10 11 12 12 12 11 13 11 12 11 13 15 16 15 14 13 13 11 14 14 15 18 16 18 20 21 21 21 20 19 19
12 11 12 12 12 12 7 7 8 10 12 11 11 10 10 11 11 11 11 12 13 11 11 12 12 14 14 15 15 15 13 15 14 15 14 15 17 19 22 21 21 21 21 20 19
9 9 11 12 12 12 7 9 9 11 12 12 9 10 9 10 10 10 10 12 12 13 12 12 12 14 15 14 15 16 16 14 12 14 14 15 16 18 20 20 22 20 19 19 19
8 8 11 12 12 6 5 7 10 12 12 11 10 9 9 10 10 10 11 12 13 12 12 11 11 13 14 14 14 14 14 14 13 12 14 15 15 17 20 20 20 19 20 19 16
5 9 12 12 7 3 5 8 10 11 12 11 11 11 10 10 9 10 10 12 13 12 11 11 9 10 12 13 13 14 14 14 12 14 14 13 15 18 19 18 18 19 18 15 16
6 5 11 11 4 3 6 8 9 10 10 10 10 10 10 9 8 10 11 12 12 12 10 10 9 9 11 12 12 12 13 13 12 11 12 14 15 18 19 18 18 17 17 16 17
6 6 5 3 4 7 8 10 8 11 10 10 9 10 9 8 9 9 10 11 12 12 13 10 8 9 8 12 11 10 11 12 12 10 13 15 15 18 19 17 19 19 17 16 18
3 5 6 4 4 5 7 9 9 9 9 9 9 9 9 8 9 9 10 10 11 12 10 8 8 8 9 10 11 11 11 11 12 13 11 13 13 16 16 17 19 18 18 17 17
4 4 4 4 4 6 7 8 10 10 9 9 9 10 9 8 9 9 9 8 9 9 8 8 8 10 10 11 11 11 12 11 11 12 12 13 13 16 17 17 18 19 19 17 17
5 4 3 5 4 4 5 8 8 8 8 10 9 8 8 10 10 9 9 9 8 8 8 9 9 9 8 11 11 10 11 11 12 13 13 12 15 17 17 18 17 18 18 18 18

GFSSW_925_temp_033.txt.gz
Temp
7 7 7 7 7 7 7 8 8 8 8 8 8 8 10 13 13 11 13 15 15 17 17 18 19 19 20 22 23 23 24 25 26 25 27 28 29 31 31 31 31 32 33 32 29
7 7 7 7 7 7 7 7 7 8 8 8 8 8 8 9 8 10 13 14 15 16 15 17 20 21 21 22 23 24 24 25 26 27 27 29 28 29 30 30 30 31 31 30 31
7 7 7 7 7 7 7 7 7 8 8 8 8 7 7 8 10 16 14 14 15 16 16 16 18 20 21 22 23 24 24 26 26 27 27 28 28 29 29 29 31 31 29 30 31
6 7 7 8 7 7 8 8 9 8 8 8 8 7 8 9 17 15 14 15 15 16 16 16 17 20 21 21 23 23 24 25 26 26 26 27 28 28 29 29 29 29 28 28 29
6 7 8 10 10 11 11 12 11 10 8 8 8 8 9 12 14 16 15 14 15 15 15 17 18 20 21 22 23 22 25 25 25 26 26 26 26 27 28 29 29 28 28 29 29
6 7 8 10 11 11 12 13 13 12 9 9 8 8 9 14 16 15 15 15 15 14 15 16 18 19 19 21 22 24 24 24 25 25 25 25 26 26 27 28 28 28 28 29 29
6 6 6 7 9 11 12 13 13 13 12 12 10 8 10 14 16 15 15 14 15 14 15 15 16 17 18 19 21 22 22 23 23 24 24 24 24 25 26 27 27 27 28 28 29
6 6 6 7 11 12 13 13 14 13 12 11 9 9 12 15 15 15 16 15 15 14 14 14 14 16 18 19 20 21 21 22 24 23 24 24 24 28 29 28 27 28 28 28 29
6 6 6 6 8 12 13 13 13 13 12 10 9 10 16 16 15 16 15 15 16 14 13 15 15 17 18 18 18 20 21 22 23 25 24 24 25 27 28 28 28 28 28 28 28
6 6 6 7 9 12 13 14 13 12 9 9 9 12 15 16 16 15 16 15 15 16 17 16 17 17 18 18 18 20 20 22 23 24 24 24 24 26 27 27 27 28 27 28 28
6 6 6 8 10 12 13 13 13 14 12 12 13 13 15 15 15 16 16 16 16 16 17 17 16 16 18 18 19 20 19 21 22 23 24 24 24 25 26 26 26 27 27 27 27
6 7 6 10 11 12 13 12 12 11 11 13 13 13 13 14 14 18 16 16 15 15 16 16 16 17 17 18 18 18 18 19 20 21 21 23 23 24 24 24 25 25 26 26 26
7 6 7 11 11 11 11 11 11 11 11 13 14 14 16 15 15 17 17 16 15 15 16 16 17 17 17 17 17 18 18 19 19 20 21 21 21 23 24 24 24 25 26 26 26
7 6 6 11 10 10 11 11 10 10 11 14 15 15 16 15 14 17 17 16 15 15 16 16 18 16 17 17 18 17 19 19 19 19 20 21 21 24 24 24 24 24 25 25 26
7 6 6 6 8 10 11 11 10 11 13 14 15 16 16 14 15 17 17 16 15 15 15 15 16 16 17 17 18 17 19 19 19 19 19 20 20 22 24 24 25 25 25 25 26
10 7 7 9 8 11 11 10 11 12 12 13 14 14 14 15 15 16 16 17 16 15 15 15 17 16 17 18 18 19 18 18 18 19 17 19 19 22 24 25 25 26 27 26 26
11 12 11 11 12 10 11 11 12 12 13 13 13 13 13 13 14 14 14 14 13 12 13 15 15 16 17 17 18 17 17 16 16 16 17 20 19 21 24 24 24 25 26 26 26
11 12 12 11 11 11 10 13 11 12 12 13 13 13 12 13 14 13 13 14 14 12 11 11 12 15 16 16 17 17 17 17 16 17 18 20 19 22 24 25 24 25 25 25 25
11 11 11 11 12 11 13 12 12 11 12 12 12 12 12 13 12 13 13 13 14 13 11 10 14 16 16 17 18 17 16 19 17 18 19 20 21 23 23 24 25 25 25 25 25
9 9 10 11 11 11 12 11 11 12 12 12 10 11 11 12 12 12 12 14 14 14 13 12 11 15 14 16 17 16 19 16 17 17 17 20 20 22 23 24 24 24 24 24 23
8 12 11 11 11 12 11 11 11 12 12 11 11 11 11 11 12 12 12 14 14 14 14 13 12 14 15 14 11 14 14 18 18 18 18 19 21 22 22 22 22 23 23 23 21
6 13 11 11 12 6 10 10 10 11 12 11 11 11 11 11 11 11 12 13 14 13 13 13 12 12 14 16 15 15 15 16 17 17 18 18 20 22 21 21 21 22 23 23 19
7 7 10 10 10 9 9 9 10 10 11 11 11 11 11 10 9 11 12 13 14 13 13 12 12 12 14 14 15 14 15 15 15 16 16 18 20 22 22 22 21 22 23 23 19
8 10 10 9 7 9 9 10 10 11 11 11 10 11 10 9 10 9 11 12 13 13 13 12 12 12 12 13 13 13 14 15 14 15 17 17 18 20 21 20 20 22 23 24 21
6 8 7 9 9 8 7 9 9 10 10 10 10 9 9 9 9 10 11 12 12 12 12 12 11 12 12 12 13 13 13 14 14 15 14 17 18 19 19 19 20 21 22 24 22
7 7 7 7 7 7 8 9 10 10 9 10 10 10 9 8 9 9 10 9 9 9 10 9 10 11 11 13 13 13 14 14 14 14 15 15 16 18 18 19 21 22 23 23 23
4 4 5 7 7 7 9 9 9 9 9 10 10 9 9 10 11 10 11 10 9 8 8 9 10 10 11 13 13 12 14 15 15 15 15 15 17 18 18 19 21 21 21 22 23